Crane Lake, MN

9:58 AM CST on February 24, 2017 (GMT -0600)
Crane Lake

Weather History for KCDD - October, 2012

Change the Weather History Date:

Monday, October 29, 2012

  Actual Average Record
Temperature  
Mean Temperature 36 °F -  
Max Temperature 46 °F 41 °F 60 °F (2005)
Min Temperature 24 °F 28 °F 10 °F (2013)
Degree Days  
Heating Degree Days 29    
Moisture  
Dew Point 30 °F    
Average Humidity 90    
Maximum Humidity 100    
Minimum Humidity 57    
Precipitation  
Precipitation 0.00 in - - ()
Sea Level Pressure  
Sea Level Pressure 30.34 in    
Wind  
Wind Speed 0 mph (SSE)    
Max Wind Speed 5 mph    
Max Gust Speed -    
Visibility 9 miles    
Events Snow    
Averages and records for this station are not official NWS values.
T = Trace of Precipitation, MM = Missing Value Source: NWS Daily Summary

Daily Weather History Graph

Daily Weather History Graph

Search for Another Location

Airport or City:

Trip Planner

Search our weather history database for the weather conditions in past years. The results will help you decide how hot, cold, wet, or windy it might be!

Date:

Astronomy

Oct. 29, 2012 Rise Set
Actual Time 7:51 AM CDT 5:54 PM CDT
Civil Twilight 7:19 AM CDT 6:27 PM CDT
Nautical Twilight 6:42 AM CDT 7:03 PM CDT
Astronomical Twilight 6:06 AM CDT 7:40 PM CDT
Moon 5:43 PM CDT (10/29) 7:44 AM CDT (10/29)
Length of Visible Light 11h 08m
Length of Day
10h 03m
Full, 100% of the Moon is Illuminated
Oct 29
Full
Oct 29
Full
Nov 6
Last Quarter
Nov 13
New
Nov 20
First Quarter

Hourly Weather History & Observations

Time (CDT) Temp. Windchill Dew Point Humidity Pressure Visibility Wind Dir Wind Speed Gust Speed Precip Events Conditions
12:08 AM 26.6 °F - 24.8 °F 93% 30.35 in 10.0 mi Calm Calm - N/A   Overcast
12:28 AM 26.6 °F - 26.6 °F 100% 30.35 in 10.0 mi Calm Calm - N/A   Overcast
12:48 AM 26.6 °F - 26.6 °F 100% 30.36 in 10.0 mi Calm Calm - N/A   Overcast
1:08 AM 26.6 °F - 26.6 °F 100% 30.36 in 10.0 mi Calm Calm - N/A   Overcast
1:27 AM 26.6 °F - 26.6 °F 100% 30.36 in 10.0 mi Calm Calm - N/A   Overcast
1:47 AM 26.6 °F - 26.6 °F 100% 30.35 in 10.0 mi Calm Calm - N/A   Overcast
2:07 AM 26.6 °F - 26.6 °F 100% 30.36 in 10.0 mi Calm Calm - N/A   Overcast
2:27 AM 28.4 °F - 26.6 °F 93% 30.36 in 10.0 mi Calm Calm - N/A   Overcast
2:47 AM 28.4 °F - 26.6 °F 93% 30.35 in 10.0 mi Calm Calm - N/A   Overcast
3:07 AM 28.4 °F - 26.6 °F 93% 30.35 in 10.0 mi Calm Calm - N/A   Overcast
3:28 AM 28.4 °F - 26.6 °F 93% 30.35 in 10.0 mi Calm Calm - N/A   Overcast
3:48 AM 28.4 °F - 26.6 °F 93% 30.34 in 10.0 mi Calm Calm - N/A   Overcast
4:08 AM 28.4 °F - 26.6 °F 93% 30.34 in 10.0 mi Calm Calm - N/A   Overcast
4:27 AM 28.4 °F - 26.6 °F 93% 30.34 in 10.0 mi Calm Calm - N/A   Overcast
4:47 AM 28.4 °F - 28.4 °F 100% 30.34 in 10.0 mi Calm Calm - N/A   Overcast
5:07 AM 28.4 °F - 28.4 °F 100% 30.34 in 10.0 mi Calm Calm - N/A   Overcast
5:27 AM 28.4 °F - 28.4 °F 100% 30.34 in 10.0 mi Calm Calm - N/A   Overcast
5:47 AM 28.4 °F - 28.4 °F 100% 30.34 in 10.0 mi Calm Calm - N/A   Overcast
6:07 AM 28.4 °F - 28.4 °F 100% 30.34 in 10.0 mi Calm Calm - N/A Snow Light Snow
6:27 AM 28.4 °F - 28.4 °F 100% 30.34 in 10.0 mi Calm Calm - N/A   Overcast
6:48 AM 30.2 °F - 28.4 °F 93% 30.34 in 10.0 mi Calm Calm - N/A   Overcast
7:07 AM 30.2 °F - 28.4 °F 93% 30.34 in 10.0 mi Calm Calm - N/A   Overcast
7:28 AM 30.2 °F - 28.4 °F 93% 30.35 in 5.0 mi Calm Calm - N/A Snow Light Snow
7:47 AM 30.2 °F - 28.4 °F 93% 30.35 in 5.0 mi Calm Calm - N/A Snow Light Snow
8:08 AM 30.2 °F - 28.4 °F 93% 30.35 in 3.0 mi Calm Calm - N/A Snow Light Snow
8:27 AM 30.2 °F - 28.4 °F 93% 30.35 in 2.5 mi Calm Calm - N/A Snow Light Snow
8:48 AM 30.2 °F - 28.4 °F 93% 30.35 in 5.0 mi Calm Calm - N/A Snow Light Snow
9:08 AM 30.2 °F - 30.2 °F 100% 30.35 in 4.0 mi Calm Calm - N/A Snow Light Snow
9:28 AM 30.2 °F - 30.2 °F 100% 30.35 in 4.0 mi Calm Calm - N/A Snow Light Snow
9:48 AM 30.2 °F - 30.2 °F 100% 30.36 in 3.0 mi Calm Calm - N/A Snow Light Snow
10:07 AM 32.0 °F - 30.2 °F 93% 30.36 in 3.0 mi Calm Calm - N/A Snow Light Snow
10:27 AM 32.0 °F - 30.2 °F 93% 30.36 in 5.0 mi Calm Calm - N/A Snow Light Snow
10:48 AM 32.0 °F - 30.2 °F 93% 30.35 in 7.0 mi Calm Calm - N/A   Overcast
11:08 AM 33.8 °F - 32.0 °F 93% 30.35 in 10.0 mi Calm Calm - N/A   Overcast
11:28 AM 33.8 °F - 33.8 °F 100% 30.35 in 10.0 mi Calm Calm - N/A   Overcast
11:48 AM 35.6 °F - 33.8 °F 93% 30.35 in 10.0 mi Calm Calm - N/A   Overcast
12:08 PM 37.4 °F - 35.6 °F 93% 30.35 in 10.0 mi Calm Calm - N/A   Overcast
12:48 PM 37.4 °F - 35.6 °F 93% 30.35 in 10.0 mi Calm Calm - N/A   Overcast
1:48 PM 41.0 °F - 37.4 °F 87% 30.33 in 10.0 mi Calm Calm - N/A   Overcast
2:08 PM 41.0 °F - 39.2 °F 93% 30.33 in 10.0 mi Calm Calm - N/A   Overcast
2:28 PM 44.6 °F - 41.0 °F 87% 30.32 in 10.0 mi Calm Calm - N/A   Mostly Cloudy
2:47 PM 44.6 °F - 39.2 °F 81% 30.32 in 10.0 mi Calm Calm - N/A   Mostly Cloudy
3:07 PM 46.4 °F 44.3 °F 33.8 °F 62% 30.33 in 10.0 mi South 4.6 mph - N/A   Mostly Cloudy
3:27 PM 46.4 °F - 35.6 °F 66% 30.33 in 10.0 mi Calm Calm - N/A   Mostly Cloudy
3:47 PM 46.4 °F 45.2 °F 32.0 °F 57% 30.33 in 10.0 mi South 3.5 mph - N/A   Mostly Cloudy
4:07 PM 44.6 °F 42.2 °F 33.8 °F 66% 30.33 in 10.0 mi ESE 4.6 mph - N/A   Mostly Cloudy
4:27 PM 42.8 °F - 32.0 °F 66% 30.32 in 10.0 mi Calm Calm - N/A   Scattered Clouds
4:47 PM 39.2 °F - 30.2 °F 70% 30.33 in 10.0 mi Calm Calm - N/A   Scattered Clouds
5:08 PM 37.4 °F - 28.4 °F 70% 30.32 in 10.0 mi Calm Calm - N/A   Overcast
5:28 PM 35.6 °F - 28.4 °F 75% 30.32 in 10.0 mi Calm Calm - N/A   Overcast
5:48 PM 33.8 °F - 28.4 °F 81% 30.33 in 10.0 mi Calm Calm - N/A   Overcast
6:07 PM 33.8 °F - 28.4 °F 81% 30.33 in 10.0 mi Calm Calm - N/A   Overcast
6:27 PM 33.8 °F - 28.4 °F 81% 30.33 in 10.0 mi Calm Calm - N/A   Overcast
6:47 PM 33.8 °F - 30.2 °F 87% 30.33 in 10.0 mi Calm Calm - N/A   Overcast
7:08 PM 33.8 °F - 30.2 °F 87% 30.32 in 10.0 mi Calm Calm - N/A   Overcast
7:28 PM 35.6 °F - 32.0 °F 87% 30.32 in 10.0 mi Calm Calm - N/A   Overcast
7:48 PM 35.6 °F - 32.0 °F 87% 30.32 in 10.0 mi Calm Calm - N/A   Overcast
8:08 PM 35.6 °F - 32.0 °F 87% 30.32 in 10.0 mi Calm Calm - N/A   Overcast
8:27 PM 35.6 °F - 32.0 °F 87% 30.32 in 10.0 mi Calm Calm - N/A   Overcast
8:48 PM 33.8 °F - 30.2 °F 87% 30.33 in 10.0 mi Calm Calm - N/A   Overcast
9:07 PM 33.8 °F - 30.2 °F 87% 30.33 in 10.0 mi Calm Calm - N/A   Overcast
9:27 PM 33.8 °F - 30.2 °F 87% 30.32 in 10.0 mi Calm Calm - N/A   Overcast
9:47 PM 32.0 °F - 28.4 °F 87% 30.32 in 10.0 mi Calm Calm - N/A   Scattered Clouds
10:07 PM 30.2 °F - 26.6 °F 86% 30.32 in 10.0 mi Calm Calm - N/A   Clear
10:27 PM 28.4 °F - 24.8 °F 86% 30.32 in 10.0 mi Calm Calm - N/A   Clear
10:47 PM 26.6 °F - 24.8 °F 93% 30.32 in 10.0 mi Calm Calm - N/A   Clear
11:07 PM 26.6 °F - 24.8 °F 93% 30.32 in 10.0 mi Calm Calm - N/A   Clear
11:28 PM 26.6 °F - 23.0 °F 86% 30.32 in 7.0 mi Calm Calm - N/A   Clear
11:48 PM 24.8 °F - 23.0 °F 93% 30.32 in 10.0 mi Calm Calm - N/A   Clear